Content
SEND FEEDBACK

Daily
Averages
Monthly
Summary
United States of America

NILES, MICHIGAN


Home > North America > United States > Michigan
Elevation: 720 feet     Latitude: 41 50N     Longitude: 086 15W

WEATHER
 
SELECT A DAY
Number of Records: 213,697;   Date Range: 1/1/95 - 7/29/14
 
SHARE

PRINT THIS DATA

[ ← Previous Day ]
WEATHER ALMANAC - FEBRUARY 13, 2013
[ Next Day → ]
[ °C ]   °F
Weather ElementAverageHighLow
Temperature32 °F44.1 °F (3:54 pm)19.9 °F (5:54 am)
Dewpoint24 °F28.9 °F (6:54 pm)17.1 °F (5:54 am)
Humidity73.5 %89 % (5:54 am)53 % (3:54 pm)
Barometer29.84 in29.97 in (12:54 am)29.75 in (2:54 pm)
Wind Speed7.3 mph15 mph (2:54 pm)
Wind Gust21.9 mph (2:54 pm)
Weather ElementAverage
Visibility8.7 mi
Wind DirectionSSW (192 °)

Weather ElementTotal
Precipitation---
Heating Degree Days33 (Base 65)
Averaged from 25 records on February 13, 2013
WEATHER CONDITIONS BREAKOUT
WIND DIRECTION BREAKOUT
WEATHER BY HOUR - FEBRUARY 13, 2013
[ °C ]   °F
Local TimeTemperatureDewpointHumidityBarometerVisibilityWind DirectionWind SpeedGust SpeedPrecipitationEventsConditions
12:54 AM24.1 °F19.0 °F81 %29.97 in8.0 miNNW (330°)3.5 mphOvercast
1:54 AM26.1 °F21.0 °F81 %29.96 in8.0 miSSW (200°)3.5 mphOvercast
2:46 AM26.6 °F19.4 °F74 %29.91 in10.0 miSSE (150°)4.6 mphScattered Clouds
2:54 AM25.0 °F19.0 °F78 %29.94 in10.0 miSSE (160°)3.5 mphPartly Cloudy
3:54 AM24.1 °F19.0 °F81 %29.93 in8.0 miSSE (160°)3.5 mphClear
4:54 AM21.9 °F18.0 °F85 %29.91 in7.0 miCalmClear
5:54 AM19.9 °F17.1 °F89 %29.89 in6.0 miCalmClear
6:54 AM21.0 °F18.0 °F88 %29.87 in5.0 miSouth (170°)4.6 mphClear
7:54 AM21.9 °F18.0 °F85 %29.86 in4.0 miSSE (160°)3.5 mphClear
8:54 AM26.1 °F21.0 °F81 %29.85 in7.0 miSSE (160°)5.8 mphClear
9:54 AM28.9 °F23.0 °F78 %29.85 in9.0 miSouth (180°)8.1 mphClear
10:54 AM33.1 °F25.0 °F72 %29.85 in9.0 miSouth (190°)9.2 mphClear
11:54 AM37.0 °F26.1 °F65 %29.83 in10.0 miSSW (200°)13.8 mphClear
12:54 PM39.9 °F26.1 °F58 %29.81 in10.0 miSSW (210°)11.5 mphClear
1:54 PM41.0 °F27.0 °F57 %29.77 in10.0 miSW (230°)13.8 mphClear
2:54 PM43.0 °F28.0 °F56 %29.75 in10.0 miSW (230°)15.0 mph21.9 mphClear
3:54 PM44.1 °F28.0 °F53 %29.75 in10.0 miWSW (240°)15.0 mph19.6 mphClear
4:54 PM44.1 °F28.0 °F53 %29.75 in10.0 miWSW (240°)10.4 mphClear
5:54 PM42.1 °F28.0 °F58 %29.76 in10.0 miSW (230°)8.1 mphClear
6:54 PM39.0 °F28.9 °F67 %29.78 in10.0 miSW (230°)8.1 mphClear
7:54 PM37.0 °F28.9 °F73 %29.78 in10.0 miWSW (240°)9.2 mphClear
8:54 PM35.1 °F28.9 °F78 %29.79 in10.0 miSW (220°)6.9 mphClear
9:54 PM33.1 °F28.0 °F82 %29.80 in10.0 miSW (230°)6.9 mphClear
10:54 PM33.1 °F28.0 °F82 %29.79 in9.0 miSW (220°)6.9 mphScattered Clouds
11:54 PM33.1 °F28.0 °F82 %29.79 in8.0 miSW (220°)6.9 mphScattered Clouds
Hourly data recorded from KSBN, located miles away from Niles, Michigan







STORIES FROM OUR PARTNERS